Connexion S'enregistrer

Connexion à votre compte

Identifiant
Mot de passe
Maintenir la connexion active sur ce site

Créer un compte

Pour valider ce formulaire, vous devez remplir tous les champs.
Nom
Identifiant
Mot de passe
Répétez le mot de passe
Adresse e-mail
Répétez l'adresse e-mail

URGENT! L'Aéroclub recherche de nouveaux instructeurs.

Prise de fonction immédiate.

 

L’Aéroclub de Savoie recherche FIAs qualifiés, bénévoles (préférés) ou auto-entrepreneurs, sans expérience prérequise, pour BB et PPL.

Qualif montagne et vol nuit bienvenues.

Souhait d’une implication pédagogique au-delà de l’acquisition d’expérience.

Bénévoles, défraiement maximum : 60km. 

Contacter le secrétariat ou envoyer candidature par mail.

Nous contacter

 Téléphone : +33 (0)4 79 54 41 81

Coordonnées détaillées et accès : cliquez ici

 
LFLB °C
    Ferienhaus Ostsee
[source: ADDS]
METAR
LFLB 201100Z AUTO 03005KT 9999 BKN016 BKN082 BKN100 04/02 Q1004 NOSIG =
TAF LFLB 201100Z 2012/2112 VRB03KT 9999 SCT020 BKN070 BECMG 2014/2016 36008KT TEMPO 2020/2108 -RA SCT014 BKN040
TAF
TAF LFLB 201100Z 2012/2112 VRB03KT 9999 SCT020 BKN070 BECMG 2014/2016 36008KT TEMPO 2020/2108 -RA SCT014 BKN040 =
SR / SS: 06:42 / 16:01 UTC (Lever/Coucher du soleil le 2018-11-20)
JSN Boot template designed by JoomlaShine.com